Tracking 20475 objects as of 27-Feb-2020
HD Live streaming from Space Station
objects crossing your sky now

MOLNIYA 1-52

Track MOLNIYA 1-52 now!
MOLNIYA 1-52 is classified as:


NORAD ID: 13012
Int'l Code: 1981-123A
Perigee: 1,015.2 km
Apogee: 39,395.9 km
Inclination: 63.6 °
Period: 718.6 minutes
Semi major axis: 26576 km
RCS: 16.6943 m2 (large)
Launch date: December 23, 1981
Source: Commonwealth of Independent States (former USSR) (CIS)
Launch site: TYURATAM MISSILE AND SPACE COMPLEX (TTMTR)
aabbcc
Your satellite tracking list
Your tracking list is empty




NASA's NSSDC Master Catalog

Two Line Element Set (TLE):
1 13012U 81123A   20056.01602848 +.00000255 +00000-0 +00000-0 0  9996
2 13012 063.5789 043.1011 7220774 248.4743 025.0463 02.00379867279659
Source of the keplerian elements: AFSPC